Flag for Canada Weather past 2 weeks in Fort Liard, Northwest Territories, Canada

Now
63 °F

Mild.


Feels Like: 63 °F
Forecast: 51 / 76 °F
Wind: No wind

Location: Lindberg Landing

Current Time: Jul 23, 2014 at 12:08:30 AM

Latest Report: Jul 22, 2014 at 11:00 PM


Visibility: N/A

Pressure: 29.91 "Hg

Humidity: 89%

Dew point: 60 °F

Location of Fort LiardLocation

Historic Weather in Fort Liard — Graph

°F

Fort Liard temperature yesterday

Maximum temperature yesterday: 80 °F (at 7:00 PM)
Minimum temperature yesterday: 56 °F (at 6:00 AM)
Average temperature yesterday: 66 °F

Past Weeks' High & Low Weather Summary

 TemperatureHumidityPressure
High94 °F (Jul 14, 5:00 PM)100% (Jul 9, 9:00 AM)30.03 "Hg (Jul 9, 9:00 AM)
Low45 °F (Jul 11, 5:00 AM)22% (Jul 14, 3:00 PM)29.48 "Hg (Jul 18, 7:00 PM)
Average66 °F69%29.81 "Hg
* Reported Jul 7 10:00 PM — Jul 22 10:00 PM, Fort Liard, Weather by CustomWeather, © 2014

Note: Actual official high and low records may vary slightly from our data, if they occured in-between our weather recording intervals... More about our weather records

Advertising

Fort Liard weather history for previous 24 hours

 ConditionsComfort  
Time TempWeatherWind HumidityBarometerVisibility
10:00 PM
Jul 22
66 °FMild.No wind82%29.93 "HgN/A
9:00 PM76 °FMild.1 mph51%29.93 "HgN/A
8:00 PM80 °FWarm.2 mph45%29.93 "HgN/A
7:00 PM80 °FWarm.1 mph41%29.94 "HgN/A
6:00 PM80 °FWarm.2 mph47%29.96 "HgN/A
5:00 PM80 °FWarm.3 mph46%29.96 "HgN/A
10:00 AM67 °FMild.2 mph67%30.03 "HgN/A
9:00 AM66 °FMild.1 mph72%30.02 "HgN/A
8:00 AM63 °FMild.1 mph81%30.01 "HgN/A
7:00 AM57 °FCool.1 mph92%30.00 "HgN/A
6:00 AM56 °FCool.1 mph95%29.99 "HgN/A
5:00 AM57 °FCool.1 mph96%29.99 "HgN/A
4:00 AM57 °FCool.1 mph97%29.99 "HgN/A
3:00 AM56 °FCool.1 mph96%29.98 "HgN/A
2:00 AM58 °FCool.No wind96%29.97 "HgN/A
1:00 AM59 °FCool.No wind93%29.96 "HgN/A
12:00 AM62 °FCool.No wind89%29.95 "HgN/A
Weather by CustomWeather, © 2014

See weather overviewHow to use our weather pages